Oak Ridge, TN

12:58 PM EDT on April 30, 2017 (GMT -0400)
Oak Ridge

Weather History for KOQT - August, 2013

Change the Weather History Date:

Tuesday, August 6, 2013

  Actual Average (KTYS) Record (KTYS)
Temperature  
Mean Temperature 77 °F -  
Max Temperature 86 °F 86 °F 99 °F (1930)
Min Temperature 70 °F 68 °F 57 °F (1950)
Cooling Degree Days 12    
Growing Degree Days 27 (Base 50)    
Moisture  
Dew Point 69 °F    
Average Humidity 76    
Maximum Humidity 93    
Minimum Humidity 57    
Precipitation  
Precipitation 0.01 in - - ()
Sea Level Pressure  
Sea Level Pressure 29.97 in    
Wind  
Wind Speed 1 mph (WSW)    
Max Wind Speed 6 mph    
Max Gust Speed -    
Visibility 10 miles    
Events Rain    
Averages and records for this station are not official NWS values.
T = Trace of Precipitation, MM = Missing Value Source: NWS Daily Summary

Daily Weather History Graph

Daily Weather History Graph

Search for Another Location

Airport or City:

Trip Planner

Search our weather history database for the weather conditions in past years. The results will help you decide how hot, cold, wet, or windy it might be!

Date:

Astronomy

Aug. 06, 2013 Rise Set
Actual Time 6:48 AM EDT 8:36 PM EDT
Civil Twilight 6:20 AM EDT 9:04 PM EDT
Nautical Twilight 5:46 AM EDT 9:38 PM EDT
Astronomical Twilight 5:10 AM EDT 10:13 PM EDT
Moon 6:36 AM EDT (8/6) 8:13 PM EDT (8/6)
Length of Visible Light 14h 43m
Length of Day
13h 48m
Waning Crescent, 0% of the Moon is Illuminated
Aug 6
Waning Crescent
Aug 6
New
Aug 14
First Quarter
Aug 20
Full
Aug 28
Last Quarter

Hourly Weather History & Observations

Time (EDT) Temp. Heat Index Dew Point Humidity Pressure Visibility Wind Dir Wind Speed Gust Speed Precip Events Conditions
12:53 AM 72.0 °F - 66.0 °F 81% 29.98 in 10.0 mi Calm Calm - 0.00 in   Overcast
1:53 AM 71.1 °F - 66.0 °F 84% 29.96 in 10.0 mi Calm Calm - N/A   Overcast
2:53 AM 71.1 °F - 66.0 °F 84% 29.94 in 10.0 mi Calm Calm - N/A   Overcast
3:53 AM 72.0 °F - 66.0 °F 81% 29.95 in 10.0 mi Calm Calm - N/A   Overcast
4:53 AM 70.0 °F - 66.9 °F 90% 29.94 in 10.0 mi Calm Calm - N/A   Overcast
5:53 AM 70.0 °F - 68.0 °F 93% 29.95 in 10.0 mi Calm Calm - 0.01 in Rain Light Rain
6:53 AM 70.0 °F - 68.0 °F 93% 29.96 in 10.0 mi Calm Calm - N/A   Overcast
7:53 AM 70.0 °F - 68.0 °F 93% 29.99 in 10.0 mi Calm Calm - N/A   Overcast
8:53 AM 72.0 °F - 66.9 °F 84% 29.99 in 10.0 mi Calm Calm - N/A   Overcast
9:53 AM 73.9 °F - 68.0 °F 82% 30.01 in 10.0 mi Calm Calm - N/A   Overcast
10:53 AM 78.1 °F - 69.1 °F 74% 29.99 in 10.0 mi Calm Calm - N/A   Scattered Clouds
11:53 AM 81.0 °F 82.7 °F 64.9 °F 58% 29.99 in 10.0 mi Calm Calm - N/A   Mostly Cloudy
12:53 PM 82.0 °F 84.5 °F 66.9 °F 60% 30.00 in 10.0 mi Variable 5.8 mph - N/A   Overcast
1:53 PM 82.9 °F 85.8 °F 68.0 °F 60% 29.98 in 10.0 mi Calm Calm - N/A   Overcast
2:53 PM 84.9 °F 88.2 °F 68.0 °F 57% 29.97 in 10.0 mi Calm Calm - N/A   Mostly Cloudy
3:53 PM 84.9 °F 88.8 °F 69.1 °F 59% 29.95 in 10.0 mi Variable 4.6 mph - N/A   Mostly Cloudy
4:53 PM 84.0 °F 87.8 °F 69.1 °F 61% 29.96 in 10.0 mi WSW 4.6 mph - N/A   Mostly Cloudy
5:53 PM 82.9 °F 87.0 °F 70.0 °F 65% 29.96 in 10.0 mi Variable 3.5 mph - N/A   Mostly Cloudy
6:53 PM 82.9 °F 87.5 °F 71.1 °F 67% 29.95 in 10.0 mi Calm Calm - 0.00 in   Partly Cloudy
7:53 PM 82.0 °F 86.7 °F 72.0 °F 71% 29.95 in 10.0 mi West 4.6 mph - N/A   Partly Cloudy
8:53 PM 80.1 °F 83.6 °F 71.1 °F 74% 29.95 in 10.0 mi SW 3.5 mph - N/A   Clear
9:53 PM 79.0 °F - 72.0 °F 79% 29.96 in 10.0 mi Calm Calm - N/A   Clear
10:53 PM 79.0 °F - 72.0 °F 79% 29.96 in 10.0 mi Calm Calm - N/A   Clear
11:53 PM 77.0 °F - 72.0 °F 84% 29.97 in 10.0 mi Calm Calm - N/A   Clear